Content
SEND FEEDBACK

Daily
Averages
Monthly
Summary
United States of America

BATTENVILLE, NEW YORK


Home > North America > United States > New York
Elevation: 400 feet     Latitude: 43 07N     Longitude: 073 25W

WEATHER
 
SELECT A DAY
Number of Records: 183,953;   Date Range: 12/9/98 - 12/19/14
 
SHARE

PRINT THIS DATA

[ ← Previous Day ]
WEATHER ALMANAC - JULY 13, 2014
[ Next Day → ]
[ °C ]   °F
Weather ElementAverageHighLow
Temperature73.7 °F78.1 °F (11:54 am)64.9 °F (7:54 am)
Dewpoint65.3 °F69.1 °F (12:54 pm)60.1 °F (10:54 am)
Humidity75.1 %85 % (3:54 pm)69 % (6:54 pm)
Barometer29.95 in30.07 in (6:09 am)29.83 in (6:03 am)
Wind Speed7 mph13.8 mph (3:54 am)
Wind Gust26.5 mph (12:54 am)
Weather ElementAverage
Visibility9.3 mi
Wind DirectionESE (122 °)

Weather ElementTotal
Precipitation0.01 in
Cooling Degree Days6.5 (Base 65)
Growing Degree Days21.5 (Base 50)
Averaged from 25 records on July 13, 2014
WEATHER CONDITIONS BREAKOUT
WIND DIRECTION BREAKOUT
WEATHER BY HOUR - JULY 13, 2014
[ °C ]   °F
Local TimeTemperatureDewpointHumidityBarometerVisibilityWind DirectionWind SpeedGust SpeedPrecipitationEventsConditions
12:54 AM71.1 °F61.0 °F70 %30.07 in10.0 miVariable3.5 mphPartly Cloudy
1:54 AM70.0 °F60.1 °F71 %30.06 in10.0 miCalmMostly Cloudy
2:54 AM69.1 °F60.1 °F73 %30.05 in10.0 miCalmMostly Cloudy
3:54 AM68.0 °F60.1 °F76 %30.04 in10.0 miCalmClear
4:54 AM68.0 °F60.1 °F76 %30.04 in6.0 miVariable3.5 mphHaze
5:54 AM64.9 °F60.1 °F84 %30.04 in10.0 miCalmScattered Clouds
6:54 AM68.0 °F62.1 °F81 %30.01 in10.0 miVariable3.5 mphScattered Clouds
7:54 AM73.9 °F64.0 °F71 %30.00 in10.0 miVariable3.5 mphClear
8:54 AM73.0 °F64.0 °F73 %29.99 in10.0 miSW (230°)8.1 mphMostly Cloudy
9:54 AM77.0 °F66.0 °F69 %29.97 in10.0 miSouth (180°)9.2 mph18.4 mphClear
10:54 AM78.1 °F68.0 °F71 %29.96 in10.0 miSouth (190°)6.9 mph18.4 mphPartly Cloudy
11:54 AM77.0 °F66.9 °F71 %29.96 in10.0 miSouth (190°)11.5 mph17.3 mphScattered Clouds
12:07 PM78.1 °F68.0 °F71 %29.97 in10.0 miVariable4.6 mphMostly Cloudy
12:38 PM75.9 °F66.9 °F74 %29.96 in10.0 miSouth (180°)9.2 mph16.1 mphOvercast
12:54 PM78.1 °F68.0 °F71 %29.94 in10.0 miSouth (180°)13.8 mph20.7 mphMostly Cloudy
1:54 PM75.0 °F66.9 °F76 %29.93 in9.0 miSouth (180°)9.2 mph18.4 mphOvercast
2:54 PM75.9 °F68.0 °F76 %29.91 in10.0 miSouth (170°)10.4 mph18.4 mphMostly Cloudy
3:54 PM75.0 °F66.9 °F76 %29.90 in8.0 miSouth (190°)8.1 mph18.4 mphOvercast
4:54 PM77.0 °F68.0 °F74 %29.88 in8.0 miSouth (180°)11.5 mphMostly Cloudy
5:54 PM73.9 °F69.1 °F85 %29.86 in4.0 miSouth (170°)12.7 mph24.2 mph0.00 inRainLight Rain
7:54 PM75.0 °F69.1 °F82 %29.83 in7.0 miSouth (180°)9.2 mph19.6 mph0.01 inOvercast
8:54 PM75.0 °F66.9 °F76 %29.83 in10.0 miSouth (190°)8.1 mph0.00 inOvercast
9:54 PM75.0 °F66.9 °F76 %29.85 in10.0 miSW (220°)8.1 mphMostly Cloudy
10:54 PM75.9 °F68.0 °F76 %29.85 in10.0 miSSW (210°)12.7 mph26.5 mphOvercast
11:54 PM75.0 °F68.0 °F79 %29.86 in10.0 miSSW (210°)6.9 mphOvercast
Hourly data recorded from KDDH, located miles away from Battenville, New York







STORIES FROM OUR PARTNERS